Simultaneous Nadir Overpasses (SNOs) Predictions

Prediction of SNOs between METOP-A and NOAA-19 Satellite Orbit:

Table of predicted SNOs for the next 14.0 days since TLE Epoch: 7/11/2015
Index Date (METOP-A) Time (METOP-A) Lat,Lon (METOP-A) SZA (METOP-A ) Date (NOAA-19) Time (NOAA-19) Lat,Lon (NOAA-19) SZA (NOAA-19 ) Distance(km) Time Diff (sec)
1 07/17/2015 22:29:34 75.62,-158.79 54.44 07/17/2015 22:28:26 75.58,-161.40 54.47 72.20 68
2 07/17/2015 23:20:25 -75.19, 7.24 125.97 07/17/2015 23:19:17 -75.16, 7.19 125.98 2.89 68
3 07/18/2015 00:11:05 75.16, 174.51 54.02 07/18/2015 00:10:19 75.14, 174.50 54.00 2.80 46
4 07/18/2015 01:01:48 -75.11, -18.31 126.03 07/18/2015 01:01:19 -75.14, -18.24 126.00 3.20 29
5 07/18/2015 01:52:27 75.14, 149.10 54.01 07/18/2015 01:52:21 75.11, 149.08 53.98 3.14 6
6
